TimePST,TemperatureF,Dew PointF,Humidity,Sea Level PressureIn,VisibilityMPH,Wind Direction,Wind SpeedMPH,Gust SpeedMPH,PrecipitationIn,Events,Conditions,WindDirDegrees,DateUTC
12:53 AM,23.0,19.9,88,30.54,6.0,Calm,Calm,-,N/A,,Clear,0,2013-01-15 08:53:00
1:53 AM,21.0,19.0,92,30.56,7.0,WNW,3.5,-,N/A,,Clear,290,2013-01-15 09:53:00
2:53 AM,21.0,18.0,88,30.59,7.0,Calm,Calm,-,N/A,,Clear,0,2013-01-15 10:53:00
3:53 AM,21.0,18.0,88,30.59,7.0,Calm,Calm,-,N/A,,Clear,0,2013-01-15 11:53:00
4:53 AM,19.9,17.1,89,30.60,6.0,Calm,Calm,-,N/A,,Clear,0,2013-01-15 12:53:00
5:53 AM,21.0,19.0,92,30.61,5.0,Calm,Calm,-,N/A,,Clear,0,2013-01-15 13:53:00
6:53 AM,19.9,18.0,92,30.62,6.0,Calm,Calm,-,N/A,,Clear,0,2013-01-15 14:53:00
7:53 AM,19.0,17.1,92,30.63,5.0,Calm,Calm,-,N/A,,Clear,0,2013-01-15 15:53:00
8:53 AM,21.9,19.0,89,30.66,5.0,Calm,Calm,-,N/A,,Clear,0,2013-01-15 16:53:00
9:53 AM,26.1,23.0,88,30.67,6.0,Calm,Calm,-,N/A,,Clear,0,2013-01-15 17:53:00
10:53 AM,28.0,24.1,85,30.68,7.0,Calm,Calm,-,N/A,,Clear,0,2013-01-15 18:53:00
11:53 AM,32.0,25.0,75,30.66,10.0,Calm,Calm,-,N/A,,Clear,0,2013-01-15 19:53:00
12:53 PM,34.0,25.0,70,30.64,10.0,Calm,Calm,-,N/A,,Clear,0,2013-01-15 20:53:00
1:53 PM,36.0,26.1,67,30.64,10.0,NW,3.5,-,N/A,,Clear,310,2013-01-15 21:53:00
2:53 PM,36.0,27.0,70,30.63,10.0,WNW,5.8,-,N/A,,Clear,300,2013-01-15 22:53:00
3:53 PM,35.1,27.0,72,30.63,10.0,WNW,5.8,-,N/A,,Clear,300,2013-01-15 23:53:00
4:53 PM,32.0,26.1,79,30.64,10.0,West,4.6,-,N/A,,Clear,280,2013-01-16 00:53:00
5:53 PM,28.0,24.1,85,30.65,9.0,WNW,4.6,-,N/A,,Clear,300,2013-01-16 01:53:00
6:53 PM,28.0,23.0,81,30.65,9.0,Calm,Calm,-,N/A,,Clear,0,2013-01-16 02:53:00
7:53 PM,25.0,21.9,88,30.66,7.0,Calm,Calm,-,N/A,,Clear,0,2013-01-16 03:53:00
8:53 PM,24.1,21.9,91,30.65,7.0,Calm,Calm,-,N/A,,Clear,0,2013-01-16 04:53:00
10:53 PM,21.9,19.0,89,30.64,6.0,Calm,Calm,-,N/A,,Clear,0,2013-01-16 06:53:00
11:53 PM,19.9,18.0,92,30.63,5.0,NNW,3.5,-,N/A,,Clear,330,2013-01-16 07:53:00